Location: B?dargowo
(53.3916°N, 14.4413°E)
Time: 10:09:22
(UTC+00:00)

ATLAS 2AS CENTAUR R/B - Pass Details

Date: 05 February 2023
Orbit: 986 x 1226 km, 63.7° (Epoch: 31 January)

Event Time Altitude Azimuth Distance (km) Brightness Sun altitude
Rises 16:52:44 0° 313° (NW) 3,993 6.2 -9.2°
Reaches altitude 10° 16:55:33 10° 309° (NW) 2,995 5.6 -9.6°
Maximum altitude 17:02:24 54° 235° (SW) 1,276 3.5 -10.6°
Drops below altitude 10° 17:08:50 10° 160° (SSE) 2,818 4.8 -11.6°
Sets 17:11:26 0° 156° (SSE) 3,741 5.4 -12.0°
